Home > Weather > Willemstad > Past weeks

Flag for Curaçao Past Weather in Willemstad, Curaçao — Yesterday and Last 2 Weeks

Now
82 °F

Passing clouds.


Feels Like: 89 °F
Forecast: 82 / 90 °F
Wind: 13 mph from Southeast

Location: Hato Airport - Curacao

Current Time: Jul 27, 2016 at 7:50:37 AM

Latest Report: Jul 27, 2016 at 7:00 AM


Visibility: N/A

Pressure: 29.92 "Hg

Humidity: 79%

Dew Point: 75 °F

Location of WillemstadLocation

Past Weather in Willemstad — Graph

°F

Willemstad Temperature Yesterday

Maximum temperature yesterday: 90 °F (at 1:00 PM)
Minimum temperature yesterday: 81 °F (at 4:00 AM)
Average temperature yesterday: 85 °F

High & Low Weather Summary for the Past Weeks

 TemperatureHumidityPressure
High93 °F (Jul 21, 1:00 PM)94% (Jul 15, 11:00 PM)30.01 "Hg (Jul 15, 11:00 PM)
Low79 °F (Jul 15, 5:00 AM)52% (Jul 25, 11:00 AM)29.83 "Hg (Jul 26, 5:00 PM)
Average85 °F75%29.93 "Hg
* Reported Jul 12 6:00 AM — Jul 27 6:00 AM, Willemstad, Weather by CustomWeather, © 2016

Note: Actual official high and low records may vary slightly from our data, if they occured in-between our weather recording intervals... More about our weather records

Advertising

Willemstad Weather History for the Previous 24 Hours

Scroll right to see more
 ConditionsComfort  
Time TempWeatherWind HumidityBarometerVisibility
6:00 AM
Wed, Jul 27
82 °FPassing clouds.14 mph79%29.89 "HgN/A
5:00 AM82 °FPassing clouds.13 mph79%29.89 "HgN/A
2:00 AM82 °FPassing clouds.12 mph79%29.89 "HgN/A
1:00 AM82 °FPassing clouds.15 mph84%29.92 "HgN/A
12:00 AM82 °FPassing clouds.14 mph79%29.92 "HgN/A
11:00 PM
Tue, Jul 26
82 °FPassing clouds.14 mph79%29.92 "HgN/A
10:00 PM82 °FPassing clouds.16 mph79%29.92 "HgN/A
9:00 PM82 °FPassing clouds.15 mph79%29.89 "HgN/A
8:00 PM82 °FPassing clouds.13 mph79%29.86 "HgN/A
7:00 PM84 °FPassing clouds.14 mph70%29.86 "HgN/A
6:00 PM86 °FPassing clouds.16 mph66%29.83 "HgN/A
5:00 PM88 °FPassing clouds.17 mph59%29.83 "HgN/A
4:00 PM90 °FPassing clouds.16 mph59%29.86 "HgN/A
3:00 PM90 °FPassing clouds.15 mph63%29.86 "HgN/A
2:00 PM90 °FPassing clouds.16 mph63%29.89 "HgN/A
1:00 PM90 °FPassing clouds.15 mph52%29.92 "HgN/A
12:00 PM88 °FScattered clouds.15 mph66%29.95 "HgN/A
11:00 AM88 °FScattered clouds.15 mph66%29.95 "HgN/A
10:00 AM88 °FScattered clouds.15 mph66%29.95 "HgN/A
9:00 AM86 °FScattered clouds.15 mph66%29.95 "HgN/A
8:00 AM84 °FPartly sunny.13 mph74%29.92 "HgN/A
7:00 AM81 °FPassing clouds.9 mph84%29.92 "HgN/A
Weather by CustomWeather, © 2016

See weather overviewHow to use our weather pages